Date,TemperatureHighF,TemperatureAvgF,TemperatureLowF,DewpointHighF,DewpointAvgF,DewpointLowF,HumidityHigh,HumidityAvg,HumidityLow,PressureMaxIn,PressureMinIn,WindSpeedMaxMPH,WindSpeedAvgMPH,GustSpeedMaxMPH,PrecipitationSumIn
2013-1-1,80.5,71.4,63.4,67.5,60.9,55.9,90,71,52,30.10,29.90,28,5,28,0.00
2013-1-2,80.8,71.9,65.7,66.6,59.9,54.4,75,66,47,30.02,29.91,26,6,26,0.00
2013-1-3,81.2,72.0,64.8,67.2,59.1,46.7,74,64,49,30.02,29.91,25,6,25,0.00
2013-1-4,80.1,72.6,67.5,63.7,60.4,57.1,81,66,54,30.05,29.88,37,11,37,0.00
2013-1-5,78.9,71.7,64.3,67.0,57.9,49.8,85,62,47,30.09,29.96,26,5,26,0.00
2013-1-6,77.3,70.2,62.6,65.1,59.3,50.8,81,68,58,30.11,29.98,17,3,17,0.00
2013-1-7,75.6,66.8,61.9,60.9,57.7,51.8,83,73,58,30.06,29.92,25,6,25,0.00
2013-1-8,80.0,70.4,62.1,64.0,58.3,46.2,80,66,51,29.98,29.84,25,6,25,0.00
2013-1-9,78.9,70.5,63.9,64.6,60.8,56.3,81,72,56,29.99,29.86,21,4,21,0.00
2013-1-10,78.8,69.9,63.1,66.5,60.2,53.4,82,72,56,29.99,29.87,24,6,24,0.00
2013-1-11,78.8,70.1,63.2,65.5,60.8,54.0,82,73,59,29.95,29.84,24,5,24,0.02
2013-1-12,76.3,68.7,59.8,65.9,59.3,50.8,84,72,55,29.99,29.89,15,2,15,0.00
2013-1-13,78.4,69.9,62.1,66.8,60.4,54.4,85,72,60,30.00,29.90,12,2,0,0.00
2013-1-14,78.0,71.0,62.4,68.3,63.5,54.9,92,78,68,30.01,29.86,14,2,14,0.01
2013-1-15,74.8,69.8,67.3,69.2,67.2,66.0,97,92,81,29.95,29.85,11,1,0,0.31
2013-1-16,76.0,69.6,63.1,66.9,63.6,58.4,95,82,63,29.96,29.83,12,2,0,0.02
2013-1-17,75.6,67.3,57.9,62.2,58.7,52.2,89,75,59,29.94,29.82,13,2,0,0.00
2013-1-18,75.3,67.7,58.5,63.1,58.6,55.3,89,73,55,29.96,29.82,13,2,13,0.00
2013-1-19,80.4,69.6,60.3,57.8,53.8,40.9,80,60,27,30.00,29.86,23,6,23,0.00
2013-1-20,78.9,69.0,63.2,58.0,55.0,47.6,76,62,42,30.05,29.92,25,8,25,0.00
2013-1-21,78.2,69.5,63.2,64.3,57.4,53.0,76,66,46,30.09,29.99,28,8,28,0.00
2013-1-22,79.3,70.4,64.7,62.8,58.3,52.9,77,66,44,30.12,29.98,26,6,26,0.00
2013-1-23,78.6,69.6,63.4,64.3,60.5,54.3,83,73,56,30.06,29.97,30,4,30,0.00
2013-1-24,77.0,68.8,61.6,65.3,59.8,54.3,87,73,55,30.08,30.00,12,2,13,0.00
2013-1-25,76.1,68.5,60.7,64.7,60.4,53.7,87,76,62,30.08,29.98,13,2,0,0.00
2013-1-26,76.5,68.0,60.5,64.8,59.8,55.1,88,76,60,30.06,29.93,12,2,0,0.00
2013-1-27,77.2,68.3,59.3,64.3,58.6,53.4,83,72,55,30.03,29.89,13,2,0,0.00
2013-1-28,76.3,70.0,63.2,64.5,59.9,54.6,77,71,59,30.00,29.88,12,2,0,0.00
2013-1-29,74.5,68.8,63.2,66.8,62.6,56.9,91,81,69,30.03,29.92,9,1,0,0.00
2013-1-30,75.7,69.8,64.9,68.2,64.9,61.1,96,85,71,30.07,29.98,12,2,0,0.26
2013-1-31,78.0,70.5,63.5,67.7,62.7,57.1,87,77,63,30.08,29.97,27,4,27,0.00